Regional Weather Roundup
Issued by NWS Kansas City/Pleasant Hill, MO

Home | Current Version | Previous Version | Graphics & Text | Print | Product List | Glossary Off
Versions: 1 2 3 4 5 6 7 8 9 10 11 12 13 14 15 16 17 18 19 20 21 22 23 24 25 26 27

000
ASUS43 KEAX 281610
RWREAX

WEATHER ROUNDUP FOR EASTERN KANSAS AND NORTHWEST MISSOURI
NATIONAL WEATHER SERVICE KANSAS CITY/PLEASANT HILL MO
1100 AM CDT SUN AUG 28 2016

KSZ040-057-103>105-MOZ028-029-037-043-281700-
...KANSAS CITY METROPOLITAN AREA...

CITY           SKY/WX    TMP DP  RH WIND       PRES   REMARKS
K.C. INTL      MOSUNNY   84  72  67 S6        30.14S
K.C. DOWNTOWN  SUNNY     86  71  60 S5        30.12S HX  91
LEES SUMMIT    SUNNY     83  72  69 VRB5      30.15S
OLATHE - IXD   SUNNY     82  72  71 S7        30.15S
OLATHE - OJC   SUNNY     82  72  71 S5        30.15R
LAWRENCE       SUNNY     84  73  69 SE5       30.12S HX  90

$$

MOZ001>008-011>017-020>025-030>033-038>040-044>046-053-054-281700-
...NORTHERN AND CENTRAL MISSOURI...

CITY           SKY/WX    TMP DP  RH WIND       PRES   REMARKS
ST. JOSEPH     SUNNY     83  73  72 VRB3      30.12S
MOSBY          SUNNY     82  72  69 SE3       30.14R
WHITEMAN AFB   MOSUNNY   83  77  80 SW3       30.14S HX  92
CLINTON        MOSUNNY   84  73  70 CALM      30.16S HAZE    HX  91
SEDALIA        SUNNY     86  73  65 CALM      30.17S HX  93
WARSAW         NOT AVBL
CHILLICOTHE    NOT AVBL
KIRKSVILLE     SUNNY     83  73  72 CALM      30.17S

$$

MOZ041-047>049-056>058-063>065-088>090-097-281700-
...EASTERN AND SOUTHERN MISSOURI...

CITY           SKY/WX    TMP DP  RH WIND       PRES   REMARKS
ST. LOUIS INTL MOSUNNY   90  70  51 CALM      30.18R HX  95
SPIRIT OF STL  MOSUNNY   87  75  67 NW5       30.16R HX  96
COLUMBIA       MOSUNNY   83  75  77 S3        30.17R HX  90
JEFFERSON CITY MOSUNNY   83  75  77 VRB3      30.15S HX  90
ROLLA          SUNNY     82  72  71 SW3       30.18S
OSAGE BEACH    SUNNY     84  75  74 SE5       30.17S HX  92
SPRINGFIELD    SUNNY     85  69  58 SE8       30.17S
BRANSON        PTSUNNY   82  73  74 S6        30.20R
JOPLIN         MOSUNNY   83  72  69 S3        30.15S
WEST PLAINS    MOSUNNY   84  68  58 E5        30.21S

$$

IAZ060-094-KSZ022-034>040-054-083-096-NEZ052-066-093-281700-
...KANSAS...SOUTHEAST NEBRASKA AND IOWA...

CITY           SKY/WX    TMP DP  RH WIND       PRES   REMARKS
TOPEKA         SUNNY     84  73  69 SE3       30.11S HX  90
MANHATTAN      MOSUNNY   86  71  60 S7        30.10R HX  91
EMPORIA        SUNNY     82  72  71 SE9       30.13R
CHANUTE        SUNNY     84  74  71 S7        30.13S HX  91
WICHITA        MOSUNNY   84  70  62 S7        30.11R
OMAHA          PTSUNNY   80  71  74 S9        30.11R
LINCOLN        MOSUNNY   81  71  71 E3        30.10S
FALLS CITY     SUNNY     84  74  71 SE5       30.11S HX  91
LAMONI         SUNNY     81  74  79 SE5       30.15S
DES MOINES     PTSUNNY   82  73  74 S7        30.14S

$$





USA.gov is the U.S. government's official web portal to all federal, state and local government web resources and services.